星链-32135 (STARLINK-32135)

导读 | 豆包AI

STARLINK-32135是美国SpaceX公司星链(Starlink)星座的卫星成员,于2024年7月27日发射入轨。星链星座旨在构建全球卫星互联网,为地面偏远地区提供高速宽带服务,该卫星运行在近地轨道,是SpaceX大规模星座组网部署的组成部分,支撑星链覆盖全球的互联目标,服务包括消费级互联网接入、移动终端直连等应用场景。

基本信息
目录编号:
60277
目录名称:
STARLINK-32135
国际标识:
2024-131Y
轨道中心:
EARTH
卫星名称:
星链-32135 (STARLINK-32135)
卫星全名:
星链-32135 (STARLINK-32135)
卫星状态:
在轨 (已飞行643 天)
发射日期:
2024-07-27 UTC
国别 :
美国 (US)
星等 :
--
轨道信息
数据来源 国际轨道数据
星历时间: 2026-04-30T18:35:53+0800
16小时前
查看轨道信息
半长轴: 6853.374km
偏心率: 0.000094
轨道倾角: 53.159°
近地点辐角 78.839°
升交点赤经 171.929°
平近点角 281.272°
近地点: 474.592km
远地点: 475.882km
周期: 94.106分钟
每日圈数: 15.301929
详细信息
卫星平台:
Starlink v2.0 mini
运营商:
太空探索技术公司
运营商所在国:
美国
制造商(研发单位):
太空探索技术公司
制造商所在国:
美国
使用方式:
暂无
卫星简介
星链(Starlink)计划是由太空探索技术公司(SpaceX)提出的一个巨型低轨卫星互联网星座项目,计划在2019年至2024年间在太空搭建由约1.2万颗卫星组成的“星链”网络,其中1584颗将部署在地球上空550千米处的近地轨道,并从2020年开始工作。该卫星仍在工作。
2D轨道图
3D轨道图
轨道高度分析图
轨道倾角分析图
轨道综合分析图
查看轨道综合分析图